This is the latest recevied weather packets stored in our database for station/object AA4OM-2. If no packets are shown the sender has not sent any weather packets the latest 10 day(s).
| Time | Temp. | Humidity | Pressure | Rain* | Wind** | Luminosity | Snow |
|---|---|---|---|---|---|---|---|
| 1777723631 | 5° C | 99% | 1018 hPa | 0 mm | - | 54 W/m² | - |
| 1777723328 | 4.44° C | 98% | 1018.2 hPa | 0 mm | - | 60 W/m² | - |
| 1777723026 | 3.89° C | 98% | 1018 hPa | 0 mm | - | 43 W/m² | - |
| 1777722722 | 3.89° C | 98% | 1018.3 hPa | 0 mm | - | 32 W/m² | - |
| 1777722418 | 3.89° C | 98% | 1018.1 hPa | 0 mm | - | 24 W/m² | - |
| 1777722115 | 3.89° C | 98% | 1017.9 hPa | 0 mm | - | 22 W/m² | - |
| 1777721812 | 3.33° C | 98% | 1017.7 hPa | 0 mm | - | 19 W/m² | - |
| 1777721510 | 3.33° C | 98% | 1017.5 hPa | 0 mm | - | 16 W/m² | - |
| 1777721208 | 3.33° C | 98% | 1017.6 hPa | 0 mm | - | 14 W/m² | - |
| 1777720905 | 3.33° C | 98% | 1017.6 hPa | 0 mm | - | 11 W/m² | - |
| 1777720602 | 3.33° C | 98% | 1017.8 hPa | 0 mm | - | 9 W/m² | - |
| 1777720300 | 3.33° C | 98% | 1017.4 hPa | 0 mm | - | 6 W/m² | - |
| 1777719998 | 3.33° C | 98% | 1017.4 hPa | 0 mm | - | 4 W/m² | - |
| 1777719695 | 3.33° C | 98% | 1017.5 hPa | 0 mm | - | 3 W/m² | - |
| 1777719392 | 3.33° C | 98% | 1017.5 hPa | 0 mm | - | 1 W/m² | - |
| 1777719089 | 3.33° C | 98% | 1017.4 hPa | 0 mm | - | 1 W/m² | - |
| 1777718786 | 3.33° C | 98% | 1017.6 hPa | 0 mm | - | 0 W/m² | - |
| 1777718484 | 3.33° C | 98% | 1017.4 hPa | 0 mm | - | 0 W/m² | - |
| 1777718181 | 3.33° C | 98% | 1017.2 hPa | 0 mm | - | 0 W/m² | - |
| 1777717879 | 3.33° C | 97% | 1017.4 hPa | 0 mm | - | 0 W/m² | - |
| 1777717576 | 3.33° C | 97% | 1017.3 hPa | 0 mm | - | 0 W/m² | - |
| 1777717273 | 3.89° C | 97% | 1017.4 hPa | 0 mm | - | 0 W/m² | - |
| 1777716970 | 3.89° C | 97% | 1017.4 hPa | 0 mm | - | 0 W/m² | - |
| 1777716668 | 3.89° C | 97% | 1017.4 hPa | 0 mm | - | 0 W/m² | - |
| 1777716367 | 3.89° C | 97% | 1017.3 hPa | 0 mm | - | 0 W/m² | - |
* Rain latest hour (hover to see other rain measurements)
** Current wind speed in m/s (hover to see current wind gust speed)